Time,TemperatureF,DewpointF,PressureIn,WindDirection,WindDirectionDegrees,WindSpeedMPH,WindSpeedGustMPH,Humidity,HourlyPrecipIn,Conditions,Clouds,dailyrainin,SoftwareType,DateUTC
2013-02-07 00:00:00,32.8,29.9,30.07,SE,135,5.0,11.0,89,0.00,,OVC110,0.00,VWS V14.01,2013-02-07 06:00:00,
2013-02-07 00:08:00,32.6,30.0,30.07,SSE,150,4.0,10.0,89,0.00,,,0.00,weatherlink.com 1.10,2013-02-07 06:08:00,
2013-02-07 00:23:00,32.2,30.0,30.07,South,186,6.0,8.0,90,0.00,,,0.00,weatherlink.com 1.10,2013-02-07 06:23:00,
2013-02-07 00:30:00,32.1,29.5,30.08,SE,135,4.0,11.0,90,0.00,,OVC110,0.00,VWS V14.01,2013-02-07 06:30:00,
2013-02-07 00:38:00,32.1,30.0,30.08,SSE,164,2.0,6.0,90,0.00,,,0.00,weatherlink.com 1.10,2013-02-07 06:38:00,
2013-02-07 00:53:00,31.9,29.0,30.08,SSE,160,4.0,8.0,90,0.00,,,0.00,weatherlink.com 1.10,2013-02-07 06:53:00,
2013-02-07 01:00:00,32.0,29.4,30.08,SSE,158,3.0,7.0,90,0.00,,OVC110,0.00,VWS V14.01,2013-02-07 07:00:00,
2013-02-07 01:08:00,32.0,29.0,30.08,SSE,155,2.0,7.0,90,0.00,,,0.00,weatherlink.com 1.10,2013-02-07 07:08:00,
2013-02-07 01:23:00,32.0,29.0,30.07,SSE,152,4.0,9.0,90,0.00,,,0.00,weatherlink.com 1.10,2013-02-07 07:23:00,
2013-02-07 01:30:00,32.0,29.4,30.07,SE,135,4.0,8.0,90,0.00,,OVC110,0.00,VWS V14.01,2013-02-07 07:30:00,
2013-02-07 01:38:00,31.8,30.0,30.07,SSE,165,2.0,7.0,91,0.00,,,0.00,weatherlink.com 1.10,2013-02-07 07:38:00,
2013-02-07 01:53:00,31.6,29.0,30.07,SSE,150,4.0,5.0,91,0.00,,,0.00,weatherlink.com 1.10,2013-02-07 07:53:00,
2013-02-07 02:00:00,31.7,29.4,30.07,SE,135,3.0,10.0,91,0.00,,OVC110,0.00,VWS V14.01,2013-02-07 08:00:00,
2013-02-07 02:08:00,31.9,30.0,30.07,ESE,122,7.0,9.0,91,0.00,,,0.00,weatherlink.com 1.10,2013-02-07 08:08:00,
2013-02-07 02:23:00,32.3,30.0,30.07,SSE,148,2.0,9.0,91,0.00,,,0.00,weatherlink.com 1.10,2013-02-07 08:23:00,
2013-02-07 02:30:00,32.4,30.1,30.07,SE,135,4.0,9.0,91,0.00,,OVC110,0.00,VWS V14.01,2013-02-07 08:30:00,
2013-02-07 02:38:00,32.5,30.0,30.07,SE,136,5.0,9.0,91,0.00,,,0.00,weatherlink.com 1.10,2013-02-07 08:38:00,
2013-02-07 02:53:00,32.4,30.0,30.06,SE,144,6.0,10.0,92,0.02,,,0.02,weatherlink.com 1.10,2013-02-07 08:53:00,
2013-02-07 03:00:00,32.4,30.6,30.05,SSE,158,4.0,10.0,93,0.04,,OVC110,0.04,VWS V14.01,2013-02-07 09:00:00,
2013-02-07 03:08:00,32.4,31.0,30.05,SSE,157,7.0,12.0,93,0.04,,,0.04,weatherlink.com 1.10,2013-02-07 09:08:00,
2013-02-07 03:23:00,32.5,31.0,30.04,ESE,115,5.0,11.0,93,0.05,,,0.06,weatherlink.com 1.10,2013-02-07 09:23:00,
2013-02-07 03:30:00,32.4,30.6,30.04,SE,135,6.0,12.0,93,0.06,,OVC110,0.06,VWS V14.01,2013-02-07 09:30:00,
2013-02-07 03:38:00,32.3,31.0,30.04,ESE,104,2.0,10.0,93,0.06,,,0.06,weatherlink.com 1.10,2013-02-07 09:38:00,
2013-02-07 03:53:00,32.3,31.0,30.04,SE,146,2.0,11.0,93,0.04,,,0.07,weatherlink.com 1.10,2013-02-07 09:53:00,
2013-02-07 04:00:00,32.4,30.9,30.04,SE,135,4.0,11.0,94,0.07,,OVC110,0.07,VWS V14.01,2013-02-07 10:00:00,
2013-02-07 04:08:00,32.4,31.0,30.04,SE,132,6.0,9.0,94,0.03,,,0.07,weatherlink.com 1.10,2013-02-07 10:08:00,
2013-02-07 04:23:00,32.3,31.0,30.04,SE,140,4.0,11.0,94,0.02,,,0.08,weatherlink.com 1.10,2013-02-07 10:23:00,
2013-02-07 04:30:00,32.4,30.9,30.04,SE,135,5.0,12.0,94,0.05,,OVC110,0.09,VWS V14.01,2013-02-07 10:30:00,
2013-02-07 04:38:00,32.4,31.0,30.03,South,186,7.0,11.0,94,0.03,,,0.09,weatherlink.com 1.10,2013-02-07 10:38:00,
2013-02-07 04:53:00,32.4,31.0,30.03,SSW,207,2.0,10.0,94,0.03,,,0.10,weatherlink.com 1.10,2013-02-07 10:53:00,
2013-02-07 05:00:00,32.4,30.9,30.03,SE,135,6.0,12.0,94,0.04,,OVC110,0.10,VWS V14.01,2013-02-07 11:00:00,
2013-02-07 05:08:00,32.4,31.0,30.03,South,180,10.0,14.0,94,0.04,,,0.11,weatherlink.com 1.10,2013-02-07 11:08:00,
2013-02-07 05:23:00,32.4,31.0,30.02,SE,134,9.0,12.0,95,0.04,,,0.12,weatherlink.com 1.10,2013-02-07 11:23:00,
2013-02-07 05:30:00,32.5,31.2,30.02,SE,135,6.0,15.0,95,0.06,,OVC110,0.13,VWS V14.01,2013-02-07 11:30:00,
2013-02-07 05:38:00,32.6,31.0,30.02,SSE,155,6.0,13.0,95,0.04,,,0.13,weatherlink.com 1.10,2013-02-07 11:38:00,
2013-02-07 05:53:00,32.7,31.0,30.02,SE,136,7.0,13.0,94,0.04,,,0.14,weatherlink.com 1.10,2013-02-07 11:53:00,
2013-02-07 06:07:00,32.5,31.2,30.02,SE,135,6.0,15.0,95,0.06,,OVC110,0.13,VWS V14.01,2013-02-07 12:07:00,
2013-02-07 06:12:00,32.6,31.1,30.02,SSE,149,11.0,11.0,94,0.06,,,0.15,VWS V14.01,2013-02-07 12:12:00,
2013-02-07 06:17:00,32.5,31.0,30.02,SSW,209,5.0,11.0,94,0.06,,,0.15,VWS V14.01,2013-02-07 12:17:00,
2013-02-07 06:22:00,32.6,31.3,30.01,SE,145,7.0,11.0,95,0.06,,,0.15,VWS V14.01,2013-02-07 12:22:00,
2013-02-07 06:27:00,32.5,31.2,30.01,SSE,164,4.0,12.0,95,0.06,,,0.15,VWS V14.01,2013-02-07 12:27:00,
2013-02-07 06:32:00,32.5,31.0,30.01,South,173,8.0,9.0,94,0.03,,,0.16,VWS V14.01,2013-02-07 12:32:00,
2013-02-07 06:37:00,32.5,31.0,30.01,SSE,152,4.0,11.0,94,0.03,,,0.16,VWS V14.01,2013-02-07 12:37:00,
2013-02-07 06:42:00,32.6,31.1,30.01,SSE,164,5.0,11.0,94,0.03,,,0.16,VWS V14.01,2013-02-07 12:42:00,
2013-02-07 06:47:00,32.6,31.1,30.01,SE,133,6.0,11.0,94,0.03,,,0.16,VWS V14.01,2013-02-07 12:47:00,
2013-02-07 06:52:00,32.7,31.2,30.00,SSE,150,4.0,11.0,94,0.03,,,0.16,VWS V14.01,2013-02-07 12:52:00,
2013-02-07 06:57:00,32.7,31.2,30.01,SSE,157,7.0,11.0,94,0.04,,,0.17,VWS V14.01,2013-02-07 12:57:00,
2013-02-07 07:02:00,32.7,31.2,30.01,SSE,155,4.0,10.0,94,0.01,,,0.17,VWS V14.01,2013-02-07 13:02:00,
2013-02-07 07:07:00,32.7,31.2,30.00,SE,141,5.0,10.0,94,0.01,,,0.17,VWS V14.01,2013-02-07 13:07:00,
2013-02-07 07:12:00,32.7,31.2,30.00,ESE,113,5.0,10.0,94,0.01,,,0.17,VWS V14.01,2013-02-07 13:12:00,
2013-02-07 07:17:00,32.8,31.3,30.00,East,88,6.0,12.0,94,0.01,,,0.17,VWS V14.01,2013-02-07 13:17:00,
2013-02-07 07:22:00,32.8,31.3,30.00,SSE,164,6.0,12.0,94,0.01,,,0.17,VWS V14.01,2013-02-07 13:22:00,
2013-02-07 07:27:00,32.8,31.3,30.00,SSE,150,5.0,12.0,94,0.01,,,0.17,VWS V14.01,2013-02-07 13:27:00,
2013-02-07 07:32:00,32.8,31.3,30.00,SSE,150,4.0,10.0,94,0.02,,,0.18,VWS V14.01,2013-02-07 13:32:00,
2013-02-07 07:37:00,32.9,31.4,30.00,SSE,148,6.0,10.0,94,0.02,,,0.18,VWS V14.01,2013-02-07 13:37:00,
2013-02-07 07:42:00,32.9,31.4,30.00,SSE,167,6.0,10.0,94,0.02,,,0.18,VWS V14.01,2013-02-07 13:42:00,
2013-02-07 07:47:00,32.9,31.4,29.99,SSE,153,6.0,11.0,94,0.02,,,0.18,VWS V14.01,2013-02-07 13:47:00,
2013-02-07 07:52:00,32.9,31.4,29.99,ESE,119,5.0,13.0,94,0.02,,,0.18,VWS V14.01,2013-02-07 13:52:00,
2013-02-07 07:57:00,32.9,31.4,29.99,SSE,153,6.0,14.0,94,0.02,,,0.18,VWS V14.01,2013-02-07 13:57:00,
2013-02-07 08:02:00,32.9,31.4,29.99,SSW,211,8.0,8.0,94,0.01,,,0.18,VWS V14.01,2013-02-07 14:02:00,
2013-02-07 08:07:00,32.9,31.4,29.99,SE,138,9.0,11.0,94,0.01,,,0.18,VWS V14.01,2013-02-07 14:07:00,
2013-02-07 08:12:00,32.9,31.4,29.99,SSE,148,6.0,13.0,94,0.01,,,0.18,VWS V14.01,2013-02-07 14:12:00,
2013-02-07 08:17:00,33.0,31.5,29.99,SE,140,7.0,13.0,94,0.01,,,0.18,VWS V14.01,2013-02-07 14:17:00,
2013-02-07 08:22:00,33.0,31.2,30.00,South,174,10.0,13.0,93,0.01,,,0.18,VWS V14.01,2013-02-07 14:22:00,
2013-02-07 08:27:00,33.0,31.2,30.00,ESE,115,5.0,13.0,93,0.01,,,0.18,VWS V14.01,2013-02-07 14:27:00,
2013-02-07 08:32:00,33.0,31.2,30.00,SE,130,4.0,8.0,93,0.00,,,0.18,VWS V14.01,2013-02-07 14:32:00,
2013-02-07 08:37:00,33.0,31.2,30.00,SSE,163,7.0,12.0,93,0.00,,,0.18,VWS V14.01,2013-02-07 14:37:00,
2013-02-07 08:42:00,32.9,31.1,29.99,SE,124,7.0,12.0,93,0.00,,,0.18,VWS V14.01,2013-02-07 14:42:00,
2013-02-07 08:47:00,32.9,31.1,29.99,SSE,148,6.0,12.0,93,0.00,,,0.18,VWS V14.01,2013-02-07 14:47:00,
2013-02-07 08:52:00,33.0,31.2,29.99,ESE,121,3.0,12.0,93,0.01,,,0.19,VWS V14.01,2013-02-07 14:52:00,
2013-02-07 08:57:00,33.0,31.2,29.99,SSE,155,5.0,12.0,93,0.01,,,0.19,VWS V14.01,2013-02-07 14:57:00,
2013-02-07 09:02:00,33.1,31.3,29.99,SE,142,6.0,9.0,93,0.01,,,0.19,VWS V14.01,2013-02-07 15:02:00,
2013-02-07 09:07:00,33.0,31.2,29.99,ESE,109,4.0,9.0,93,0.01,,,0.19,VWS V14.01,2013-02-07 15:07:00,
2013-02-07 09:12:00,33.1,31.3,29.99,SE,126,4.0,9.0,93,0.01,,,0.19,VWS V14.01,2013-02-07 15:12:00,
2013-02-07 09:17:00,33.1,31.3,29.98,SSE,150,6.0,9.0,93,0.01,,,0.19,VWS V14.01,2013-02-07 15:17:00,
2013-02-07 09:22:00,33.1,31.3,29.98,East,97,5.0,9.0,93,0.01,,,0.19,VWS V14.01,2013-02-07 15:22:00,
2013-02-07 09:27:00,33.1,31.3,29.98,SE,134,3.0,9.0,93,0.01,,,0.19,VWS V14.01,2013-02-07 15:27:00,
2013-02-07 09:32:00,33.2,31.4,29.98,SE,130,6.0,6.0,93,0.02,,,0.20,VWS V14.01,2013-02-07 15:32:00,
2013-02-07 09:37:00,33.2,31.4,29.98,ESE,121,4.0,7.0,93,0.02,,-RA,0.20,VWS V14.01,2013-02-07 15:37:00,
2013-02-07 09:42:00,33.2,31.4,29.98,East,92,1.0,7.0,93,0.02,,-RA,0.20,VWS V14.01,2013-02-07 15:42:00,
2013-02-07 09:47:00,33.2,31.4,29.98,SSE,152,7.0,7.0,93,0.02,,-RA,0.20,VWS V14.01,2013-02-07 15:47:00,
2013-02-07 09:52:00,33.2,31.4,29.98,SE,136,4.0,7.0,93,0.03,,-RA,0.21,VWS V14.01,2013-02-07 15:52:00,
2013-02-07 09:57:00,33.2,31.4,29.98,SE,141,1.0,7.0,93,0.03,,-RA,0.21,VWS V14.01,2013-02-07 15:57:00,
2013-02-07 10:02:00,33.2,31.7,29.98,East,86,3.0,3.0,94,0.02,,-RA,0.21,VWS V14.01,2013-02-07 16:02:00,
2013-02-07 10:07:00,33.2,31.7,29.98,East,100,0.0,4.0,94,0.03,,-RA,0.22,VWS V14.01,2013-02-07 16:07:00,
2013-02-07 10:12:00,33.2,31.7,29.98,ESE,122,3.0,4.0,94,0.03,,-RA,0.22,VWS V14.01,2013-02-07 16:12:00,
2013-02-07 10:17:00,33.2,31.7,29.98,SE,130,2.0,5.0,94,0.04,,-RA,0.23,VWS V14.01,2013-02-07 16:17:00,
2013-02-07 10:22:00,33.2,31.7,29.98,WSW,253,1.0,5.0,94,0.04,,-RA,0.23,VWS V14.01,2013-02-07 16:22:00,
2013-02-07 10:27:00,33.2,31.7,29.98,SSE,152,3.0,5.0,94,0.05,,-RA,0.24,VWS V14.01,2013-02-07 16:27:00,
2013-02-07 10:32:00,33.2,31.7,29.98,SE,128,1.0,4.0,94,0.05,,-RA,0.25,VWS V14.01,2013-02-07 16:32:00,
2013-02-07 10:37:00,33.2,31.7,29.98,SE,132,2.0,5.0,94,0.06,,-RA,0.26,VWS V14.01,2013-02-07 16:37:00,
2013-02-07 10:42:00,33.2,31.7,29.98,ESE,121,2.0,5.0,94,0.06,,-RA,0.26,VWS V14.01,2013-02-07 16:42:00,
2013-02-07 10:47:00,33.3,31.8,29.98,SSE,164,3.0,5.0,94,0.07,,-RA,0.27,VWS V14.01,2013-02-07 16:47:00,
2013-02-07 10:52:00,33.3,31.8,29.98,SE,138,2.0,5.0,94,0.07,,-RA,0.27,VWS V14.01,2013-02-07 16:52:00,
2013-02-07 10:57:00,33.3,31.8,29.98,SSE,153,3.0,5.0,94,0.08,,-RA,0.28,VWS V14.01,2013-02-07 16:57:00,
2013-02-07 11:02:00,33.3,31.8,29.98,SE,133,3.0,4.0,94,0.08,,-RA,0.29,VWS V14.01,2013-02-07 17:02:00,
2013-02-07 11:07:00,33.3,31.8,29.97,SE,130,1.0,4.0,94,0.08,,-RA,0.29,VWS V14.01,2013-02-07 17:07:00,
2013-02-07 11:12:00,33.3,31.8,29.97,SE,133,3.0,4.0,94,0.09,,-RA,0.30,VWS V14.01,2013-02-07 17:12:00,
2013-02-07 11:17:00,33.2,31.7,29.97,ESE,120,1.0,5.0,94,0.09,,-RA,0.30,VWS V14.01,2013-02-07 17:17:00,
2013-02-07 11:22:00,33.2,31.7,29.97,SSE,149,2.0,5.0,94,0.09,,-RA,0.30,VWS V14.01,2013-02-07 17:22:00,
2013-02-07 11:27:00,33.2,31.7,29.96,ESE,104,1.0,5.0,94,0.10,,-RA,0.31,VWS V14.01,2013-02-07 17:27:00,
2013-02-07 11:32:00,33.2,31.9,29.96,ESE,111,2.0,3.0,95,0.07,,-RA,0.32,VWS V14.01,2013-02-07 17:32:00,
2013-02-07 11:37:00,33.2,31.9,29.95,East,97,3.0,5.0,95,0.07,,-RA,0.32,VWS V14.01,2013-02-07 17:37:00,
2013-02-07 11:42:00,33.2,31.9,29.95,ESE,113,1.0,5.0,95,0.08,,-RA,0.33,VWS V14.01,2013-02-07 17:42:00,
2013-02-07 11:47:00,33.1,31.8,29.94,East,88,1.0,5.0,95,0.08,,-RA,0.33,VWS V14.01,2013-02-07 17:47:00,
2013-02-07 11:52:00,33.0,31.7,29.94,ESE,107,3.0,5.0,95,0.09,,-RA,0.34,VWS V14.01,2013-02-07 17:52:00,
2013-02-07 11:57:00,32.9,31.6,29.94,East,79,1.0,5.0,95,0.09,,-RA,0.34,VWS V14.01,2013-02-07 17:57:00,
2013-02-07 12:02:00,32.9,31.6,29.94,SE,130,2.0,3.0,95,0.06,,-RA,0.35,VWS V14.01,2013-02-07 18:02:00,
2013-02-07 12:07:00,32.9,31.6,29.93,East,100,5.0,7.0,95,0.06,,-RA,0.35,VWS V14.01,2013-02-07 18:07:00,
2013-02-07 12:12:00,32.9,31.6,29.93,ESE,112,4.0,7.0,95,0.07,,-RA,0.36,VWS V14.01,2013-02-07 18:12:00,
2013-02-07 12:17:00,33.0,31.7,29.93,ESE,105,2.0,7.0,95,0.07,,-RA,0.36,VWS V14.01,2013-02-07 18:17:00,
2013-02-07 12:22:00,33.0,31.7,29.92,ESE,104,3.0,7.0,95,0.08,,-RA,0.37,VWS V14.01,2013-02-07 18:22:00,
2013-02-07 12:27:00,33.0,31.7,29.92,ESE,105,5.0,7.0,95,0.08,,-RA,0.37,VWS V14.01,2013-02-07 18:27:00,
2013-02-07 12:32:00,33.1,31.8,29.92,East,99,3.0,5.0,95,0.05,,-RA,0.37,VWS V14.01,2013-02-07 18:32:00,
2013-02-07 12:37:00,33.1,31.8,29.92,ESE,111,3.0,7.0,95,0.06,,-RA,0.38,VWS V14.01,2013-02-07 18:37:00,
2013-02-07 12:42:00,33.1,31.8,29.91,SE,133,4.0,7.0,95,0.06,,-RA,0.38,VWS V14.01,2013-02-07 18:42:00,
2013-02-07 12:47:00,33.1,31.8,29.91,ESE,106,3.0,7.0,95,0.06,,-RA,0.38,VWS V14.01,2013-02-07 18:47:00,
2013-02-07 12:52:00,33.2,31.9,29.91,SE,124,3.0,7.0,95,0.06,,,0.38,VWS V14.01,2013-02-07 18:52:00,
2013-02-07 12:57:00,33.2,31.9,29.91,ESE,107,2.0,7.0,95,0.07,,,0.39,VWS V14.01,2013-02-07 18:57:00,
2013-02-07 13:02:00,33.2,31.9,29.91,SSE,167,2.0,5.0,95,0.04,,,0.39,VWS V14.01,2013-02-07 19:02:00,
2013-02-07 13:07:00,33.2,31.9,29.91,SSE,150,1.0,5.0,95,0.04,,,0.39,VWS V14.01,2013-02-07 19:07:00,
2013-02-07 13:12:00,33.1,31.8,29.90,East,97,1.0,7.0,95,0.04,,,0.39,VWS V14.01,2013-02-07 19:12:00,
2013-02-07 13:17:00,33.1,31.8,29.90,ESE,123,1.0,7.0,95,0.04,,,0.39,VWS V14.01,2013-02-07 19:17:00,
2013-02-07 13:22:00,33.1,31.8,29.90,SE,129,4.0,7.0,95,0.04,,,0.39,VWS V14.01,2013-02-07 19:22:00,
2013-02-07 13:27:00,33.0,31.7,29.90,ESE,115,3.0,7.0,95,0.04,,,0.39,VWS V14.01,2013-02-07 19:27:00,
2013-02-07 13:32:00,33.0,31.7,29.90,ESE,105,2.0,3.0,95,0.02,,,0.39,VWS V14.01,2013-02-07 19:32:00,
2013-02-07 13:36:00,32.9,31.9,29.89,ESE,102,1.0,3.0,96,0.02,,,0.39,VWS V14.01,2013-02-07 19:36:00,
2013-02-07 13:41:00,32.9,31.9,29.89,ESE,112,2.0,3.0,96,0.02,,,0.39,VWS V14.01,2013-02-07 19:41:00,
2013-02-07 13:46:00,32.9,31.9,29.89,East,80,2.0,3.0,96,0.02,,,0.39,VWS V14.01,2013-02-07 19:46:00,
2013-02-07 13:51:00,32.9,31.9,29.89,East,92,1.0,3.0,96,0.02,,,0.39,VWS V14.01,2013-02-07 19:51:00,
2013-02-07 13:57:00,32.9,31.9,29.88,East,95,1.0,3.0,96,0.02,,,0.39,VWS V14.01,2013-02-07 19:57:00,
2013-02-07 14:01:00,32.9,31.9,29.88,East,98,2.0,2.0,96,0.00,,,0.39,VWS V14.01,2013-02-07 20:01:00,
2013-02-07 14:06:00,32.9,31.9,29.88,East,92,0.0,2.0,96,0.00,,,0.39,VWS V14.01,2013-02-07 20:06:00,
2013-02-07 14:11:00,32.9,31.9,29.88,ENE,68,1.0,2.0,96,0.00,,,0.39,VWS V14.01,2013-02-07 20:11:00,
2013-02-07 14:16:00,32.8,31.8,29.88,ENE,57,1.0,2.0,96,0.00,,,0.39,VWS V14.01,2013-02-07 20:16:00,
2013-02-07 14:21:00,32.7,31.7,29.88,NE,53,2.0,2.0,96,0.00,,,0.39,VWS V14.01,2013-02-07 20:21:00,
2013-02-07 14:26:00,32.6,31.6,29.87,NE,53,0.0,2.0,96,0.00,,,0.39,VWS V14.01,2013-02-07 20:26:00,
2013-02-07 14:31:00,32.6,31.6,29.87,NE,38,1.0,2.0,96,0.00,,,0.39,VWS V14.01,2013-02-07 20:31:00,
2013-02-07 14:36:00,32.6,31.6,29.87,NE,49,1.0,2.0,96,0.00,,,0.39,VWS V14.01,2013-02-07 20:36:00,
2013-02-07 14:41:00,32.6,31.6,29.87,ENE,70,2.0,2.0,96,0.00,,,0.39,VWS V14.01,2013-02-07 20:41:00,
2013-02-07 14:46:00,32.6,31.6,29.87,ENE,70,1.0,2.0,96,0.00,,,0.39,VWS V14.01,2013-02-07 20:46:00,
2013-02-07 14:51:00,32.6,31.6,29.87,ENE,68,1.0,2.0,96,0.00,,,0.39,VWS V14.01,2013-02-07 20:51:00,
2013-02-07 14:56:00,32.5,31.5,29.87,ENE,70,1.0,2.0,96,0.00,,,0.39,VWS V14.01,2013-02-07 20:56:00,
2013-02-07 15:01:00,32.5,31.7,29.87,ENE,63,0.0,1.0,97,0.00,,,0.39,VWS V14.01,2013-02-07 21:01:00,
2013-02-07 15:06:00,32.5,31.7,29.87,ENE,70,1.0,2.0,97,0.00,,,0.39,VWS V14.01,2013-02-07 21:06:00,
2013-02-07 15:11:00,32.5,31.7,29.86,NE,51,1.0,3.0,97,0.00,,,0.39,VWS V14.01,2013-02-07 21:11:00,
2013-02-07 15:16:00,32.5,31.7,29.87,ENE,57,1.0,3.0,97,0.00,,,0.39,VWS V14.01,2013-02-07 21:16:00,
2013-02-07 15:21:00,32.5,31.7,29.86,NE,53,2.0,3.0,97,0.00,,,0.39,VWS V14.01,2013-02-07 21:21:00,
2013-02-07 15:26:00,32.5,31.7,29.86,ENE,71,2.0,3.0,97,0.00,,,0.39,VWS V14.01,2013-02-07 21:26:00,
2013-02-07 15:31:00,32.5,31.7,29.86,ENE,64,2.0,3.0,97,0.00,,,0.39,VWS V14.01,2013-02-07 21:31:00,
2013-02-07 15:36:00,32.4,31.6,29.86,ENE,65,1.0,3.0,97,0.00,,,0.39,VWS V14.01,2013-02-07 21:36:00,
2013-02-07 15:41:00,32.4,31.6,29.86,NE,53,1.0,3.0,97,0.00,,,0.39,VWS V14.01,2013-02-07 21:41:00,
2013-02-07 15:46:00,32.4,31.6,29.86,NE,53,2.0,3.0,97,0.00,,,0.39,VWS V14.01,2013-02-07 21:46:00,
2013-02-07 15:51:00,32.4,31.6,29.85,NE,53,2.0,3.0,97,0.00,,,0.39,VWS V14.01,2013-02-07 21:51:00,
2013-02-07 15:56:00,32.4,31.6,29.86,NE,53,2.0,4.0,97,0.00,,,0.39,VWS V14.01,2013-02-07 21:56:00,
2013-02-07 16:01:00,32.4,31.6,29.86,NE,37,0.0,1.0,97,0.00,,,0.39,VWS V14.01,2013-02-07 22:01:00,
2013-02-07 16:06:00,32.4,31.6,29.86,NE,43,1.0,3.0,97,0.00,,,0.39,VWS V14.01,2013-02-07 22:06:00,
2013-02-07 16:11:00,32.4,31.6,29.86,NNE,26,0.0,3.0,97,0.00,,,0.39,VWS V14.01,2013-02-07 22:11:00,
2013-02-07 16:16:00,32.4,31.6,29.86,NNE,29,0.0,3.0,97,0.00,,,0.39,VWS V14.01,2013-02-07 22:16:00,
2013-02-07 16:21:00,32.4,31.6,29.86,NE,50,1.0,3.0,97,0.00,,,0.39,VWS V14.01,2013-02-07 22:21:00,
2013-02-07 16:26:00,32.4,31.6,29.86,NNW,347,0.0,3.0,97,0.00,,,0.39,VWS V14.01,2013-02-07 22:26:00,
2013-02-07 16:31:00,32.5,31.7,29.86,North,351,0.0,1.0,97,0.00,,,0.39,VWS V14.01,2013-02-07 22:31:00,
2013-02-07 16:36:00,32.5,31.7,29.86,NNW,333,1.0,1.0,97,0.01,,,0.40,VWS V14.01,2013-02-07 22:36:00,
2013-02-07 16:41:00,32.4,31.6,29.86,NE,38,0.0,2.0,97,0.01,,,0.40,VWS V14.01,2013-02-07 22:41:00,
2013-02-07 16:46:00,32.4,31.6,29.86,North,11,1.0,2.0,97,0.01,,,0.40,VWS V14.01,2013-02-07 22:46:00,
2013-02-07 16:51:00,32.4,31.6,29.86,NNE,24,1.0,2.0,97,0.01,,,0.40,VWS V14.01,2013-02-07 22:51:00,
2013-02-07 16:56:00,32.4,31.6,29.86,NW,319,1.0,2.0,97,0.01,,,0.40,VWS V14.01,2013-02-07 22:56:00,
2013-02-07 17:01:00,32.3,31.5,29.86,NNW,337,0.0,1.0,97,0.01,,,0.40,VWS V14.01,2013-02-07 23:01:00,
2013-02-07 17:06:00,32.4,31.6,29.86,NW,313,0.0,2.0,97,0.01,,,0.40,VWS V14.01,2013-02-07 23:06:00,
2013-02-07 17:11:00,32.3,31.5,29.86,NNW,347,1.0,2.0,97,0.01,,,0.40,VWS V14.01,2013-02-07 23:11:00,
2013-02-07 17:16:00,32.3,31.5,29.87,NNW,335,1.0,4.0,97,0.01,,,0.40,VWS V14.01,2013-02-07 23:16:00,
2013-02-07 17:21:00,32.2,31.5,29.87,NW,325,2.0,4.0,97,0.01,,,0.40,VWS V14.01,2013-02-07 23:21:00,
2013-02-07 17:26:00,32.2,31.5,29.87,NNW,329,1.0,4.0,97,0.01,,,0.40,VWS V14.01,2013-02-07 23:26:00,
2013-02-07 17:31:00,32.2,31.5,29.87,NNW,346,0.0,1.0,97,0.01,,,0.40,VWS V14.01,2013-02-07 23:31:00,
2013-02-07 17:36:00,32.2,31.5,29.87,NNW,345,2.0,3.0,97,0.01,,,0.40,VWS V14.01,2013-02-07 23:36:00,
2013-02-07 17:41:00,32.1,31.4,29.87,NNW,342,1.0,4.0,97,0.01,,,0.40,VWS V14.01,2013-02-07 23:41:00,
2013-02-07 17:46:00,32.1,31.4,29.88,NNE,13,2.0,4.0,97,0.01,,,0.40,VWS V14.01,2013-02-07 23:46:00,
2013-02-07 17:51:00,32.1,31.4,29.88,NNE,26,0.0,4.0,97,0.01,,,0.40,VWS V14.01,2013-02-07 23:51:00,
2013-02-07 17:56:00,32.1,31.4,29.87,North,11,2.0,4.0,97,0.01,,,0.40,VWS V14.01,2013-02-07 23:56:00,
2013-02-07 18:01:00,32.1,31.4,29.88,NNW,344,0.0,2.0,97,0.00,,,0.40,VWS V14.01,2013-02-08 00:01:00,
2013-02-07 18:06:00,32.1,31.4,29.88,NE,34,0.0,3.0,97,0.00,,,0.40,VWS V14.01,2013-02-08 00:06:00,
2013-02-07 18:11:00,32.1,31.4,29.88,North,350,1.0,3.0,97,0.00,,,0.40,VWS V14.01,2013-02-08 00:11:00,
2013-02-07 18:16:00,32.1,31.4,29.88,ENE,65,1.0,3.0,97,0.00,,,0.40,VWS V14.01,2013-02-08 00:16:00,
2013-02-07 18:21:00,32.1,31.6,29.88,NNE,30,1.0,3.0,98,0.00,,,0.40,VWS V14.01,2013-02-08 00:21:00,
2013-02-07 18:26:00,32.1,31.6,29.88,NNW,330,1.0,3.0,98,0.00,,,0.40,VWS V14.01,2013-02-08 00:26:00,
2013-02-07 18:31:00,32.1,31.6,29.88,NNW,334,1.0,4.0,98,0.00,,,0.40,VWS V14.01,2013-02-08 00:31:00,
2013-02-07 18:36:00,32.1,31.6,29.89,NNE,29,1.0,5.0,98,0.00,,,0.40,VWS V14.01,2013-02-08 00:36:00,
2013-02-07 18:41:00,32.1,31.6,29.88,NNW,342,2.0,5.0,98,0.00,,,0.40,VWS V14.01,2013-02-08 00:41:00,
2013-02-07 18:46:00,32.1,31.6,29.89,NNW,344,2.0,5.0,98,0.00,,,0.40,VWS V14.01,2013-02-08 00:46:00,
2013-02-07 18:51:00,32.1,31.6,29.89,NNW,347,1.0,5.0,98,0.00,,,0.40,VWS V14.01,2013-02-08 00:51:00,
2013-02-07 18:56:00,32.1,31.6,29.89,WNW,295,1.0,5.0,98,0.00,,,0.40,VWS V14.01,2013-02-08 00:56:00,
2013-02-07 19:01:00,32.1,31.6,29.89,NW,310,1.0,2.0,98,0.00,,,0.40,VWS V14.01,2013-02-08 01:01:00,
2013-02-07 19:06:00,32.1,31.6,29.89,NW,319,1.0,3.0,98,0.00,,,0.40,VWS V14.01,2013-02-08 01:06:00,
2013-02-07 19:11:00,32.1,31.6,29.89,NE,50,3.0,5.0,98,0.01,,,0.41,VWS V14.01,2013-02-08 01:11:00,
2013-02-07 19:16:00,32.1,31.6,29.89,NE,38,2.0,5.0,98,0.01,,,0.41,VWS V14.01,2013-02-08 01:16:00,
2013-02-07 19:21:00,32.1,31.6,29.89,NNW,333,2.0,5.0,98,0.01,,,0.41,VWS V14.01,2013-02-08 01:21:00,
2013-02-07 19:26:00,32.1,31.6,29.90,NNE,12,3.0,5.0,98,0.01,,,0.41,VWS V14.01,2013-02-08 01:26:00,
2013-02-07 19:31:00,32.0,31.5,29.90,North,5,2.0,3.0,98,0.01,,,0.41,VWS V14.01,2013-02-08 01:31:00,
2013-02-07 19:36:00,32.0,31.5,29.90,NNE,16,0.0,5.0,98,0.01,,,0.41,VWS V14.01,2013-02-08 01:36:00,
2013-02-07 19:41:00,32.0,31.5,29.90,WNW,290,1.0,5.0,98,0.01,,,0.41,VWS V14.01,2013-02-08 01:41:00,
2013-02-07 19:46:00,32.0,31.5,29.90,NNW,345,2.0,5.0,98,0.01,,,0.41,VWS V14.01,2013-02-08 01:46:00,
2013-02-07 19:51:00,32.0,31.5,29.90,NW,310,1.0,5.0,98,0.01,,,0.41,VWS V14.01,2013-02-08 01:51:00,
2013-02-07 20:00:00,32.0,31.5,29.91,NNW,338,2.0,5.0,98,0.01,,,0.41,VWS V14.01,2013-02-08 02:00:00,
2013-02-07 20:09:00,32.0,32.0,29.91,NNW,336,3.0,5.0,98,0.00,,,0.41,weatherlink.com 1.10,2013-02-08 02:09:00,
2013-02-07 20:24:00,32.0,32.0,29.91,NNW,330,2.0,5.0,98,0.00,,,0.41,weatherlink.com 1.10,2013-02-08 02:24:00,
2013-02-07 20:30:00,32.0,31.5,29.92,NNW,338,3.0,7.0,98,0.01,,,0.41,VWS V14.01,2013-02-08 02:30:00,
2013-02-07 20:39:00,31.8,31.0,29.92,North,349,3.0,9.0,98,0.00,,,0.41,weatherlink.com 1.10,2013-02-08 02:39:00,
2013-02-07 20:54:00,31.4,31.0,29.93,NNW,336,2.0,8.0,97,0.00,,,0.41,weatherlink.com 1.10,2013-02-08 02:54:00,
2013-02-07 21:00:00,31.2,30.5,29.93,NNW,338,3.0,9.0,97,0.00,,,0.41,VWS V14.01,2013-02-08 03:00:00,
2013-02-07 21:09:00,31.2,31.0,29.94,NNE,17,4.0,6.0,97,0.00,,,0.41,weatherlink.com 1.10,2013-02-08 03:09:00,
2013-02-07 21:24:00,30.8,30.0,29.95,NW,309,3.0,8.0,97,0.00,,,0.41,weatherlink.com 1.10,2013-02-08 03:24:00,
2013-02-07 21:30:00,30.4,29.6,29.95,NNW,338,3.0,9.0,97,0.00,,,0.41,VWS V14.01,2013-02-08 03:30:00,
2013-02-07 21:39:00,29.9,29.0,29.95,NNW,331,2.0,10.0,97,0.00,,,0.41,weatherlink.com 1.10,2013-02-08 03:39:00,
2013-02-07 21:54:00,29.4,29.0,29.95,NNW,335,3.0,8.0,97,0.00,,,0.41,weatherlink.com 1.10,2013-02-08 03:54:00,
2013-02-07 22:00:00,29.4,28.7,29.95,NNW,338,3.0,10.0,97,0.00,,,0.41,VWS V14.01,2013-02-08 04:00:00,
2013-02-07 22:09:00,29.4,29.0,29.96,ENE,78,7.0,10.0,97,0.00,,,0.41,weatherlink.com 1.10,2013-02-08 04:09:00,
2013-02-07 22:24:00,29.3,29.0,29.96,NW,318,3.0,9.0,97,0.00,,,0.41,weatherlink.com 1.10,2013-02-08 04:24:00,
2013-02-07 22:30:00,29.2,28.5,29.96,NNW,338,4.0,11.0,97,0.00,,,0.41,VWS V14.01,2013-02-08 04:30:00,
2013-02-07 22:39:00,29.2,29.0,29.96,NW,322,6.0,9.0,97,0.00,,,0.41,weatherlink.com 1.10,2013-02-08 04:39:00,
2013-02-07 22:54:00,29.0,28.0,29.96,NNE,15,2.0,9.0,97,0.00,,,0.41,weatherlink.com 1.10,2013-02-08 04:54:00,
2013-02-07 23:00:00,28.8,28.1,29.97,NNW,338,3.0,10.0,97,0.00,,,0.41,VWS V14.01,2013-02-08 05:00:00,
2013-02-07 23:09:00,27.4,26.0,29.97,NE,38,5.0,11.0,95,0.00,,,0.41,weatherlink.com 1.10,2013-02-08 05:09:00,
2013-02-07 23:24:00,26.3,25.0,29.98,NE,50,5.0,11.0,95,0.00,,,0.41,weatherlink.com 1.10,2013-02-08 05:24:00,
2013-02-07 23:30:00,26.0,24.8,29.98,NNW,338,4.0,11.0,95,0.00,,,0.41,VWS V14.01,2013-02-08 05:30:00,
2013-02-07 23:39:00,25.8,25.0,29.99,NNW,342,4.0,9.0,95,0.00,,,0.41,weatherlink.com 1.10,2013-02-08 05:39:00,
2013-02-07 23:54:00,24.7,24.0,30.00,SE,142,3.0,12.0,95,0.00,,,0.41,weatherlink.com 1.10,2013-02-08 05:54:00,